Regional Weather Roundup
Issued by NWS

Home | Current Version | Previous Version | Graphics & Text | Print | Product List | Glossary On
Versions: 1 2 3 4 5 6 7 8 9 10 11 12 13 14 15 16 17 18 19 20 21 22 23 24 25 26 27 28 29 30 31 32 33 34 35 36 37 38 39 40 41 42 43 44 45 46 47 48 49 50
000
ASUS43 KMKX 200221
RWRWI

WISCONSIN REGIONAL WEATHER ROUNDUP
NATIONAL WEATHER SERVICE MILWAUKEE/SULLIVAN WI
900 PM CDT WED JUL 19 2017

NOTE: "FAIR" INDICATES FEW OR NO CLOUDS BELOW 12,000 FEET WITH NO
SIGNIFICANT WEATHER AND/OR OBSTRUCTIONS TO VISIBILITY.

WIZ001-002-006>008-014>016-023>028-200300-
NORTHWEST WISCONSIN

CITY           SKY/WX    TMP DP  RH WIND       PRES   REMARKS
SUPERIOR ARPT  NOT AVBL
ASHLAND        CLOUDY    66  60  81 N3        29.94R
HAYWARD        CLOUDY    68  62  81 CALM      29.94S
SIREN          CLOUDY    69  62  77 CALM      29.94F
CUMBERLAND     CLOUDY    64  61  88 SW3       29.95F
RICE LAKE      CLOUDY    69  62  80 CALM      29.95F
CHETEK         CLOUDY    68  63  84 CALM      29.94F
LADYSMITH      CLOUDY    69  61  76 CALM      29.97R
EAU CLAIRE     CLOUDY    68  65  90 CALM      29.93R
MENOMONIE      CLOUDY    68  65  89 CALM      29.92F
NEW RICHMOND   CLOUDY    66  64  91 CALM      29.93F
OSCEOLA        PTCLDY    67  67 100 CALM      29.95F
$$

WIZ003>005-009-010-017-018-200300-
NORTH CENTRAL WISCONSIN

CITY           SKY/WX    TMP DP  RH WIND       PRES   REMARKS
MANITOWISH WTR CLOUDY    68  60  75 S3        29.97R
ARBOR VITAE    CLOUDY    72  60  65 SE5       29.96S
WOODRUFF       CLOUDY    72  60  65 SE5       29.96S
RHINELANDER    CLOUDY    70  59  68 SE6       29.98F
EAGLE RIVER    CLOUDY    70  55  59 S6        29.96F
LAND O LAKES   CLOUDY    69  56  62 S6        29.99S
PHILLIPS       CLOUDY    69  59  71 CALM      29.96R
TOMAHAWK         N/A     68  58  69 CALM      29.96S
MEDFORD        CLOUDY    65  59  80 CALM      29.94F
MERRILL        CLOUDY    69  60  74 CALM      29.95S
$$

WIZ029-030-035-036-043>047-200300-
CENTRAL WISCONSIN

CITY           SKY/WX    TMP DP  RH WIND       PRES   REMARKS
WAUSAU         CLOUDY    71  58  63 NE5       29.92F
MOSINEE        MOCLDY    70  63  78 NE3       29.94S
MARSHFIELD     CLOUDY    68  63  84 N6        29.92R
STEVENS POINT  CLOUDY    71  63  76 N8        29.93R
WAUPACA        CLOUDY    76  68  78 S12G25    29.86S
WAUTOMA        NOT AVBL
WISC RAPIDS    CLOUDY    72  68  87 S5        29.88R
CAMP DOUGLAS   MOCLDY    72  64  78 SE8G21    29.87R
$$

WIZ011>013-019>022-031-037>040-048>050-200300-
NORTHEAST WISCONSIN

CITY           SKY/WX    TMP DP  RH WIND       PRES   REMARKS
ANTIGO         CLOUDY    67  58  73 SE7       29.97S
SHAWANO        CLOUDY    74  58  58 SE8       29.94F
OCONTO         CLOUDY    71  56  58 SE8       29.95F
STURGEON BAY     N/A     70  54  56 SE7       29.98F
GREEN BAY      CLOUDY    72  55  55 SE10      29.96F
MANITOWOC      CLOUDY    72  50  45 S6        29.98F
APPLETON       LGT RAIN  72  59  64 S26G44    29.86F
CLINTONVILLE   CLOUDY    72  61  68 E9        29.92F
OSHKOSH        LGT RAIN  71  64  78 S15       30.01F
$$

WIZ032>034-041-042-053>061-200300-
SOUTHWEST WISCONSIN

CITY           SKY/WX    TMP DP  RH WIND       PRES   REMARKS
LA CROSSE      CLOUDY    73  68  84 S8        29.92S
SPARTA         CLOUDY    67  65  94 CALM      29.95R
VIROQUA        NOT AVBL
BOSCOBEL       CLOUDY    71  69  93 CALM      29.98R
PRAIRIE DU CHI CLOUDY    67  66  96 SE5       29.98S
PLATTEVILLE    CLOUDY    67  67 100 S3        30.08R
$$

WIZ056-057-062-063-064-067-068-200300-
SOUTH CENTRAL WISCONSIN

CITY           SKY/WX    TMP DP  RH WIND       PRES   REMARKS
REEDSBURG      CLOUDY    71  70  98 SE8G23    29.87F
BARABOO/DELLS  TSTM      72  69  92 E24G33    29.97F
LONE ROCK      CLOUDY    72  66  81 NE28G43   29.92F
MINERAL POINT  RAIN      70  70 100 NW8G20    30.04S
MADISON        TSTM      71  69  93 VRB5      30.00R FOG
MIDDLETON      CLOUDY    70  70 100 NW15G21   30.04R
WATERTOWN      CLOUDY    73  63  70 E8        30.03R
MONROE         TSTM      68  64  88 S12       30.02F
JANESVILLE     TSTM      68  68 100 S8        30.07F
$$

WIZ051-052-058>065-066-070>072-200300-
SOUTHEAST WISCONSIN

CITY           SKY/WX    TMP DP  RH WIND       PRES   REMARKS
MILWAUKEE      CLOUDY    72  57  59 SE7       30.06S
WAUKESHA       PTCLDY    72  54  53 E6        30.06F
MILWAUKEE/TIMM CLEAR     73  46  38 CALM      30.05
RACINE         CLOUDY    71  62  73 CALM      30.08S
KENOSHA        CLOUDY    70  61  73 E3        30.06F
FOND DU LAC    LGT RAIN  73  58  59 CALM      30.06R
SHEBOYGAN      CLOUDY    69  56  62 SW8       30.02F
WEST BEND      CLOUDY    70  54  56 CALM      30.05R
JUNEAU         DRIZZLE   72  60  65 CALM      30.07R
$$

LSZ147-162-200300-
LAKE SUPERIOR

STATION/POSITION TIME  TEMP    WIND        PRES    WAVE
                       AIR SEA DIR/SP/G            HT/PER
                 (UTC) (F)     (DEG/KT/KT) (MB)    (FT/S)
W MID LAKE BUOY  0150   53 47  100/  6/  8 1013.5F   0
DEVILS ISLAND    0200   68     140/  8/  8 1013.1F
SAXON HARBOR     0130   70     190/  3/  4 1012.9R
$$

LMZ867-665-643>646-200300-
LAKE MICHIGAN

STATION/POSITION TIME  TEMP    WIND        PRES    WAVE
                       AIR SEA DIR/SP/G            HT/PER
                 (UTC) (F)     (DEG/KT/KT) (MB)    (FT/S)
CHAMBERS ISLAND  0140   71     130/  4/  7 1014.9F
S GREEN BAY BUOY 0200   73 72  150/ 12/ 14 1014.4
N MID LAKE BUOY  0150   67 65  190/  4/  4 1016.5F   0
NORTHPORT PIER   0140   71     180/  4/  7 1015.6F
KEWAUNEE LAKESHO 0154   72     180/  6/  7 1014.6F
SHEBOYGAN LAKESH 0200   72     200/ 15/ 16 1015.4F
PORT WASHINGTON  0200   71     190/  1/  5 1017.9
ATWATER BUOY     0109   69 69  350/  2/  4 1017.9F
MILWAUKEE LAKESH 0200   69     210/  2/  2   N/A
S MID LAKE BUOY  0150   71 71   50/  4/  4 1017.5F   1
KENOSHA   LAKESH 0200   69        CALM     1017.6
$$

TC  - TEMPERATURE IN CELSIUS
VSB - VISIBILITY IN STATUTE MILES
WCI - WIND CHILL INDEX
HX  - HEAT INDEX





USA.gov is the U.S. government's official web portal to all federal, state and local government web resources and services.